Location: Chequamegon National Forest
(46.1070°N, 90.8420°W)
Time: 14:21:28
(UTC-05:00)

Daily predictions for brighter satellites

Satellite Brightness Start Highest point End
(mag) Time Altitude Azimuth Time Altitude Azimuth Time Altitude Azimuth
USA 234 4.2 21:29:49 10° ENE 21:34:53 23° SE 21:39:55 10° S
Cosmos 2016 Rocket 4.1 21:29:09 10° N 21:35:24 65° E 21:41:30 10° SSE
Cosmos 1328 Rocket 4.2 21:31:23 10° N 21:35:28 38° ENE 21:39:28 10° SE
Cosmos 1766 Rocket 3.7 21:31:27 10° S 21:35:41 57° E 21:39:57 10° NNE
Helios 1A 4.0 21:34:29 10° S 21:38:28 45° W 21:42:28 10° NNW
SPOT 1/Viking Rocket 4.4 21:33:52 10° SE 21:38:30 36° ENE 21:43:11 10° N
Cosmos 1242 Rocket 3.3 21:37:00 10° NNW 21:40:40 56° W 21:44:18 10° S
SL-14 R/B 4.2 21:37:22 10° SSE 21:40:53 31° E 21:44:24 10° NNE
Meteor 1-21 Rocket 4.2 21:36:34 10° S 21:42:13 86° E 21:47:48 10° NNE
Cosmos 1356 Rocket 3.6 21:39:24 10° SSW 21:43:40 80° WNW 21:48:00 10° N
CZ-4B DEB 3.9 21:41:01 10° S 21:43:50 38° W 21:46:39 10° NNW
Cosmos 1515 Rocket 4.4 21:39:51 10° N 21:43:50 34° ENE 21:47:48 10° SE
Cosmos 468 Rocket 4.0 21:39:38 10° NNW 21:44:48 87° WSW 21:49:56 10° SSE
MetOp-A 4.2 21:40:58 10° SSE 21:46:18 76° ENE 21:51:41 10° NNW
Cosmos 1674 3.1 21:43:21 10° SSW 21:47:05 64° W 21:50:49 10° N
ERS-1 Rocket 3.1 21:43:22 10° SSE 21:48:24 84° WSW 21:53:30 10° NNW
Cosmos 1603 3.8 21:43:47 10° NNW 21:49:28 78° WSW 21:55:04 10° SSE
RESURS DK-1 2.7 21:45:55 10° NNW 21:50:04 65° WSW 21:54:11 10° SSE
H-2A R/B 4.1 21:48:40 10° E 21:51:12 16° ENE 21:53:44 10° NNE
Cosmos 1743 Rocket 4.1 21:47:29 10° SSE 21:51:29 38° E 21:55:30 10° NNE
EO 1 Delta rocket 4.4 21:47:32 10° SE 21:51:55 44° ENE 21:56:27 10° N
USA 245 3.7 21:48:52 10° SSE 21:52:29 57° ENE 21:57:05 10° N
ARGOS 3.3 21:47:20 10° SSE 21:52:43 68° ENE 21:58:06 10° N
Cosmos 2058 4.3 21:50:51 10° SE 21:54:08 22° E 21:57:27 10° NE
Cosmos 1328 4.2 21:50:33 10° SSE 21:54:23 44° E 21:58:15 10° NNE
Cosmos 1455 4.2 21:52:14 10° NNE 21:54:37 16° ENE 21:56:58 10° ESE
Cosmos 1867 4.2 21:50:36 10° SW 21:55:59 62° NW 22:01:26 10° NNE
YAOGAN 11 4.2 21:56:11 10° SSE 22:00:41 72° ENE 22:05:15 10° N
Meteor 2-2 Rocket 4.3 21:55:52 10° N 22:01:42 84° E 22:07:37 10° SSE
Cosmos 1943 3.3 21:56:45 10° NNW 22:02:25 71° ENE 22:07:41 12° SE
Cosmos 371 Rocket 3.3 21:57:46 10° NNW 22:02:38 87° WSW 22:07:23 10° SSE
Cosmos 2228 Rocket 3.2 21:58:08 10° N 22:02:44 68° E 22:07:16 10° SSE
Cosmos 220 Rocket 4.0 22:00:37 10° S 22:04:58 64° ESE 22:09:19 10° NNE
SL-16 R/B 4.3 22:01:09 10° NW 22:05:23 22° W 22:09:35 10° SSW
ERBS 3.4 22:12:57 10° WNW 22:16:04 34° SW 22:18:29 15° SSE
H-2A R/B 2.2 22:17:24 12° SSE 22:22:19 81° ENE 22:27:49 10° NNW
Lacrosse 5 3.2 22:22:49 10° WNW 22:27:10 29° SW 22:31:05 12° S
Abrixas rocket 3.5 22:25:39 10° W 22:28:25 26° SSW 22:29:56 18° S
SPOT 5 3.3 22:24:13 10° S 22:29:03 65° WSW 22:34:14 10° NNW
H-2A ROCKET BODY 4.1 22:25:30 10° S 22:29:19 17° SE 22:37:20 10° ESE
SL-08 RB Rocket 4.0 22:25:51 11° S 22:30:09 68° WSW 22:34:47 10° NNW
Cosmos 2151 3.0 22:27:51 13° S 22:31:39 65° E 22:35:57 10° NNE
Cosmos 2123 Rocket 4.2 22:28:32 10° SSW 22:34:42 74° W 22:40:57 10° N
Landsat 7 3.8 22:35:07 17° SSE 22:38:46 81° ENE 22:43:33 10° NNW
Cosmos 1626 2.2 22:38:04 19° S 22:40:31 58° E 22:44:12 10° NNE
Cosmos 1726 4.0 22:38:23 10° NNW 22:41:29 26° W 22:44:34 10° SSW
Cosmos 1356 3.4 22:38:51 15° S 22:41:43 86° E 22:45:14 10° NNE
Cosmos 1703 3.4 22:39:14 18° S 22:41:59 59° E 22:45:56 10° NNE
deb Chang Zheng 4 4.4 22:43:18 10° NNE 22:47:17 33° E 22:49:17 22° SE
Tiangong 1 2.3 22:47:24 10° WSW 22:49:35 22° SSW 22:49:35 22° SSW
Cosmos 1354 Rocket 4.0 22:45:32 11° S 22:50:30 65° ESE 22:55:43 10° NNE
Cosmos 1763 Rocket 4.4 22:47:41 10° NW 22:52:26 40° WSW 22:56:30 13° SSW
Cosmos 841 Rocket 4.1 22:47:41 10° NNW 22:52:47 52° WSW 22:56:41 16° S
Cosmos 2285 Rocket 4.0 22:46:48 10° NNW 22:53:12 87° ENE 22:57:44 21° SSE
Terra 1.8 22:50:32 21° SSE 22:53:42 80° ENE 22:58:29 10° NNW
Abrixas 2.1 22:52:09 10° WSW 22:54:50 62° SSE 22:57:27 11° ENE
Meteor 1-11 4.4 22:49:32 10° SSW 22:55:21 78° WNW 23:01:12 10° N
Cosmos 1500 Rocket 4.1 22:50:59 10° SSW 22:55:23 60° W 22:59:48 10° N
Cosmos 304 Rocket 3.8 22:54:11 10° NNW 22:59:00 78° WSW 23:01:55 24° SSE
Cosmos 2263 Rocket 2.3 22:55:38 10° SSW 23:01:13 80° WNW 23:06:51 10° NNE
PSLV R/B 3.5 23:00:31 34° ESE 23:01:14 43° ENE 23:03:59 10° N
Cosmos 1666 Rocket 4.4 23:02:20 25° SE 23:04:09 36° E 23:08:14 10° NNE
IGS 5A 3.5 23:02:53 25° S 23:05:15 81° WSW 23:09:26 10° NNW
CZ-4 R/B 4.2 23:00:41 10° NNE 23:05:23 48° E 23:07:46 26° SSE
CARTOSAT-1 3.6 23:03:22 24° S 23:05:55 76° WSW 23:10:16 10° NNW
DMSP B5D2-2 4.1 23:02:27 10° NNE 23:07:43 80° WNW 23:12:26 13° SSW
Cosmos 2084 Rocket 3.5 23:08:52 10° NNW 23:12:38 59° NE 23:14:27 28° ESE
Cosmos 1151 Rocket 4.3 23:09:06 10° NNW 23:13:06 35° W 23:16:23 14° SSW
Cosmos 1805 Rocket 3.5 23:12:37 28° S 23:14:50 69° E 23:19:10 10° NNE
Cosmos 1633 Rocket 3.6 23:16:57 30° SE 23:18:28 41° E 23:22:35 10° NNE
USA 234 3.2 23:11:58 10° NE 23:18:34 80° SE 23:25:06 10° SW
COSMOS 2406 3.6 23:13:19 10° NNW 23:18:55 56° ENE 23:22:18 24° SE
Cosmos 1464 Rocket 4.0 23:14:21 10° N 23:20:33 81° E 23:24:20 26° SSE
SWAS 4.4 23:18:52 19° SSW 23:21:55 83° ESE 23:26:16 10° NNE
H-2A R/B 2.3 23:24:41 28° S 23:26:48 60° WSW 23:30:58 10° NNW
Cosmos 1455 3.1 23:26:53 10° NNW 23:30:33 43° W 23:32:20 25° SSW
Cosmos 2058 4.4 23:27:04 10° SW 23:30:53 33° WNW 23:34:45 10° N
Spot 4 3.8 23:29:02 30° SSE 23:31:26 86° WSW 23:36:21 10° NNW
SL-24 R/B - RUBIN 2 4.0 23:27:15 10° NW 23:32:53 76° NE 23:35:27 30° SE
Cosmos 1844 Rocket 3.1 23:31:42 30° SSE 23:33:55 44° ESE 23:39:12 10° NE
CZ-4C R/B 2.2 23:31:21 24° S 23:34:24 56° ESE 23:40:15 10° NE
SL-19 R/B 3.5 23:34:11 61° ESE 23:34:28 67° ENE 23:37:28 10° N
Cosmos 540 Rocket 4.5 23:41:04 10° NW 23:45:46 36° WSW 23:48:19 22° SSW
CZ-4B R/B 3.5 23:41:27 10° NNE 23:46:46 89° WNW 23:49:41 27° SSW
Cosmos 1470 Rocket 4.0 23:50:24 38° SE 23:51:33 48° E 23:55:51 10° NNE
